Total_Precipitation_Accumulation
0.42 0.32 0.30 0.22 0.25 0.30 0.30 0.34 0.44 0.52 0.68 0.52 0.32 0.22 0.18 0.16 0.08 0.12 0.09 0.06 0.03 0.00 0.00 0.00 0.00 0.00 0.00 0.00 0.00 0.00 0.01 0.02 0.02 0.01 0.01 0.01 0.02 0.03
0.18 0.23 0.19 0.16 0.18 0.17 0.20 0.22 0.29 0.30 0.23 0.27 0.29 0.20 0.17 0.12 0.09 0.07 0.05 0.08 0.05 0.01 0.00 0.00 0.00 0.00 0.00 0.00 0.00 0.00 0.01 0.02 0.02 0.02 0.01 0.01 0.00 0.01
0.22 0.21 0.18 0.24 0.22 0.21 0.19 0.17 0.17 0.26 0.18 0.24 0.33 0.38 0.31 0.16 0.07 0.08 0.08 0.05 0.02 0.02 0.00 0.00 0.00 0.00 0.00 0.00 0.00 0.00 0.01 0.02 0.02 0.01 0.01 0.01 0.01 0.01
0.17 0.24 0.19 0.28 0.25 0.23 0.32 0.30 0.27 0.23 0.25 0.11 0.30 0.40 0.57 0.61 0.35 0.20 0.11 0.05 0.04 0.04 0.02 0.01 0.00 0.00 0.00 0.00 0.00 0.00 0.01 0.02 0.02 0.01 0.01 0.01 0.01 0.02
0.11 0.16 0.14 0.27 0.30 0.28 0.35 0.31 0.34 0.33 0.40 0.31 0.26 0.25 0.27 0.39 0.35 0.26 0.19 0.08 0.04 0.07 0.08 0.09 0.07 0.05 0.02 0.01 0.01 0.01 0.01 0.01 0.02 0.03 0.04 0.05 0.06 0.07
0.04 0.07 0.10 0.17 0.20 0.20 0.24 0.26 0.28 0.38 0.52 0.52 0.51 0.39 0.21 0.17 0.20 0.31 0.37 0.24 0.16 0.11 0.15 0.12 0.12 0.11 0.08 0.07 0.07 0.05 0.04 0.04 0.03 0.03 0.03 0.07 0.13 0.19
0.03 0.03 0.06 0.13 0.19 0.20 0.19 0.16 0.19 0.28 0.57 0.92 1.00 0.72 0.57 0.59 0.41 0.24 0.16 0.20 0.26 0.21 0.15 0.22 0.25 0.23 0.15 0.12 0.12 0.13 0.12 0.11 0.10 0.10 0.11 0.10 0.10 0.10
0.16 0.06 0.03 0.06 0.07 0.13 0.20 0.23 0.25 0.26 0.29 0.31 0.31 0.30 0.28 0.27 0.38 0.54 0.60 0.34 0.17 0.16 0.31 0.40 0.46 0.45 0.33 0.25 0.33 0.25 0.18 0.19 0.19 0.18 0.17 0.18 0.19 0.21
0.07 0.03 0.00 0.01 0.04 0.03 0.08 0.25 0.43 0.49 0.33 0.26 0.26 0.19 0.15 0.17 0.20 0.26 0.25 0.30 0.33 0.24 0.29 0.39 0.53 0.67 0.64 0.60 0.62 0.44 0.36 0.34 0.37 0.38 0.36 0.33 0.30 0.31
0.01 0.00 0.00 0.00 0.01 0.01 0.01 0.05 0.12 0.20 0.25 0.23 0.24 0.23 0.17 0.15 0.22 0.31 0.40 0.48 0.41 0.34 0.49 0.57 0.47 0.53 0.57 0.55 0.60 0.49 0.51 0.54 0.55 0.49 0.51 0.53 0.54 0.56
0.01 0.01 0.00 0.00 0.02 0.02 0.04 0.11 0.25 0.25 0.30 0.43 0.39 0.24 0.29 0.36 0.25 0.14 0.22 0.24 0.20 0.12 0.14 0.22 0.24 0.32 0.39 0.41 0.39 0.44 0.49 0.48 0.52 0.63 0.65 0.65 0.72 0.87
0.00 0.00 0.01 0.01 0.01 0.01 0.01 0.01 0.05 0.16 0.32 0.31 0.27 0.49 0.62 0.56 0.42 0.28 0.22 0.15 0.16 0.21 0.14 0.10 0.07 0.10 0.20 0.25 0.23 0.26 0.31 0.38 0.44 0.50 0.54 0.60 0.66 0.62
0.00 0.00 0.00 0.01 0.00 0.00 0.02 0.02 0.03 0.03 0.05 0.12 0.18 0.09 0.11 0.29 0.34 0.23 0.18 0.20 0.18 0.13 0.12 0.16 0.12 0.09 0.11 0.11 0.12 0.15 0.19 0.29 0.38 0.45 0.52 0.55 0.56 0.51
0.01 0.00 0.00 0.00 0.00 0.00 0.01 0.02 0.07 0.07 0.02 0.04 0.08 0.07 0.09 0.12 0.13 0.12 0.11 0.16 0.14 0.12 0.15 0.17 0.13 0.11 0.12 0.13 0.14 0.20 0.26 0.31 0.35 0.44 0.48 0.56 0.58 0.53
0.00 0.00 0.00 0.00 0.00 0.00 0.01 0.01 0.02 0.02 0.05 0.07 0.06 0.06 0.08 0.12 0.19 0.26 0.33 0.35 0.40 0.42 0.44 0.37 0.29 0.23 0.25 0.26 0.23 0.24 0.32 0.38 0.40 0.38 0.40 0.41 0.39 0.37
0.00 0.00 0.00 0.00 0.00 0.00 0.00 0.00 0.00 0.02 0.07 0.12 0.18 0.20 0.18 0.20 0.24 0.27 0.29 0.28 0.34 0.41 0.39 0.36 0.38 0.39 0.37 0.33 0.31 0.39 0.38 0.39 0.40 0.37 0.33 0.33 0.30 0.25
0.00 0.00 0.00 0.00 0.00 0.00 0.00 0.00 0.00 0.00 0.01 0.03 0.12 0.26 0.34 0.36 0.30 0.26 0.33 0.38 0.35 0.27 0.28 0.36 0.41 0.38 0.38 0.38 0.40 0.36 0.34 0.36 0.38 0.38 0.33 0.29 0.22 0.17
0.00 0.01 0.01 0.01 0.00 0.00 0.00 0.01 0.02 0.03 0.01 0.04 0.09 0.12 0.16 0.22 0.27 0.32 0.30 0.25 0.25 0.34 0.39 0.39 0.38 0.46 0.50 0.48 0.37 0.29 0.32 0.35 0.40 0.36 0.29 0.25 0.25 0.20
0.01 0.01 0.02 0.02 0.01 0.01 0.01 0.01 0.02 0.04 0.08 0.11 0.12 0.12 0.11 0.12 0.20 0.19 0.24 0.27 0.28 0.28 0.27 0.28 0.29 0.28 0.31 0.33 0.45 0.37 0.31 0.33 0.37 0.42 0.34 0.24 0.19 0.17
0.02 0.02 0.03 0.02 0.02 0.02 0.01 0.02 0.02 0.03 0.04 0.09 0.16 0.21 0.21 0.20 0.18 0.16 0.15 0.17 0.21 0.24 0.27 0.28 0.26 0.24 0.21 0.17 0.21 0.36 0.30 0.31 0.32 0.32 0.30 0.23 0.19 0.16
0.02 0.03 0.03 0.03 0.03 0.02 0.02 0.02 0.02 0.03 0.06 0.09 0.12 0.15 0.18 0.22 0.26 0.27 0.28 0.32 0.30 0.28 0.29 0.31 0.32 0.28 0.21 0.23 0.37 0.49 0.49 0.32 0.22 0.17 0.17 0.18 0.19 0.18
0.03 0.04 0.04 0.04 0.04 0.04 0.04 0.03 0.03 0.04 0.07 0.10 0.15 0.21 0.24 0.24 0.23 0.25 0.31 0.40 0.44 0.39 0.36 0.38 0.32 0.27 0.32 0.32 0.31 0.29 0.40 0.44 0.35 0.26 0.19 0.13 0.12 0.09
0.04 0.05 0.05 0.05 0.05 0.05 0.05 0.05 0.04 0.04 0.08 0.12 0.19 0.25 0.28 0.31 0.31 0.30 0.29 0.26 0.23 0.25 0.26 0.33 0.39 0.39 0.41 0.36 0.34 0.37 0.35 0.35 0.33 0.29 0.26 0.14 0.08 0.05